Location: Colorado Springs
(38.8340°N, 104.8210°W)
Time: 18:43:56
(UTC-06:00)

Vanguard 1 Rocket - All Passes

Search period start: 23 April 2018 00:00
Search period end: 03 May 2018 00:00
Orbit: 654 x 4223 km, 34.3° (Epoch: 22 April)

Date Brightness Start Highest point End Pass type
(mag) Time Alt. Az. Time Alt. Az. Time Alt. Az.
23 Apr - 04:17:09 10° S 04:34:03 24° SE 04:46:46 10° E visible
23 Apr - 06:42:45 10° SW 07:03:39 49° SSE 07:15:26 10° E daylight
23 Apr - 09:14:52 10° WSW 09:31:52 69° S 09:40:17 10° E daylight
23 Apr - 11:47:22 10° W 11:58:02 54° SSW 12:03:52 10° ESE daylight
23 Apr - 14:18:41 10° WSW 14:21:50 14° SW 14:24:28 10° S daylight
24 Apr - 03:09:15 10° SSE 03:20:30 15° SE 03:30:18 10° ESE visible
24 Apr - 05:29:05 10° SSW 05:50:19 40° SSE 06:03:50 10° E visible
24 Apr - 07:59:29 10° WSW 08:19:30 64° SSE 08:29:45 10° E daylight
24 Apr - 10:32:46 10° W 10:46:48 67° S 10:53:53 10° ESE daylight
24 Apr - 13:04:24 10° W 13:11:38 29° SW 13:16:21 10° SSE daylight
25 Apr - 04:16:54 10° SSW 04:36:43 30° SE 04:51:12 10° E visible
25 Apr - 06:44:25 10° SW 07:06:33 56° SSE 07:18:50 10° E daylight
25 Apr - 09:17:27 10° WSW 09:34:58 71° S 09:43:37 10° E daylight
25 Apr - 11:50:18 10° W 12:01:04 48° SSW 12:06:59 10° SE daylight
26 Apr - 03:06:56 10° S 03:23:04 21° SE 03:36:35 10° E visible
26 Apr - 05:30:14 10° SW 05:53:04 47° SSE 06:07:23 10° E visible
26 Apr - 08:01:47 10° WSW 08:22:31 69° S 08:33:04 10° E daylight
26 Apr - 10:35:33 10° W 10:49:54 64° SSW 10:57:08 10° ESE daylight
26 Apr - 13:07:46 10° W 13:14:24 23° SW 13:18:54 10° SSE daylight
27 Apr - 02:02:40 10° SSE 02:09:34 12° SE 02:16:09 10° ESE visible
27 Apr - 04:17:22 10° SSW 04:39:19 37° SE 04:55:06 10° E visible
27 Apr - 06:46:21 10° WSW 07:09:26 63° SSE 07:22:10 10° E daylight
27 Apr - 09:20:06 10° W 09:38:04 72° S 09:46:54 10° ESE daylight
27 Apr - 11:53:16 10° W 12:03:58 41° SSW 12:09:58 10° SE daylight
28 Apr - 03:06:17 10° S 03:25:30 27° SE 03:41:23 10° E visible
28 Apr - 05:31:44 10° SW 05:55:48 55° SSE 06:10:47 10° E visible
28 Apr - 08:04:14 10° WSW 08:25:32 73° S 08:36:21 10° E daylight
28 Apr - 10:38:20 10° W 10:52:54 59° SSW 11:00:18 10° ESE daylight
28 Apr - 13:11:26 10° W 13:17:01 18° SW 13:21:05 10° S daylight
29 Apr - 01:58:09 10° SSE 02:11:56 17° SE 02:24:44 10° E visible
29 Apr - 04:18:22 10° SSW 04:41:50 45° SSE 04:58:41 10° E visible
29 Apr - 06:48:31 10° WSW 07:12:18 69° SSE 07:25:26 10° E daylight
29 Apr - 09:22:47 10° W 09:41:06 71° S 09:50:09 10° ESE daylight
29 Apr - 11:56:17 10° W 12:06:43 34° SW 12:12:47 10° SSE daylight
30 Apr - 03:06:33 10° SSW 03:27:50 34° SE 03:45:27 10° E visible
30 Apr - 05:33:33 10° SW 05:58:30 61° SSE 06:14:04 10° E visible
30 Apr - 08:06:46 10° W 08:28:31 75° S 08:39:37 10° E daylight
30 Apr - 10:41:08 10° W 10:55:48 53° SSW 11:03:23 10° SE daylight
30 Apr - 13:15:48 10° WSW 13:19:30 13° SW 13:22:31 10° SSW daylight
01 May - 01:56:51 10° S 02:14:09 23° SE 02:30:15 10° E visible
01 May - 04:19:46 10° SW 04:44:19 52° SSE 05:02:03 10° E visible
01 May - 06:50:52 10° WSW 07:15:11 73° S 07:28:41 10° E daylight
01 May - 09:25:27 10° W 09:44:05 67° SSW 09:53:21 10° ESE daylight
01 May - 11:59:27 10° W 12:09:19 28° SW 12:15:22 10° SSE daylight
02 May - 00:51:53 10° SSE 01:00:55 13° SE 01:09:57 10° ESE visible
02 May - 03:07:25 10° SSW 03:30:06 41° SE 03:49:06 10° E visible
02 May - 05:35:37 10° WSW 06:01:12 67° SSE 06:17:17 10° E visible
02 May - 08:09:22 10° W 08:31:30 75° S 08:42:52 10° ESE daylight
02 May - 10:43:57 10° W 10:58:33 46° SSW 11:06:18 10° SE daylight
